Location: Fours
(44.3167°N, 6.7000°E)
Time: 21:18:37
(UTC+00:00)

ISS - Pass Details

Date: 04 October 2021
Orbit: 417 x 423 km, 51.6° (Epoch: 16 October)

Event Time Altitude Azimuth Distance (km) Brightness Sun altitude
Rises 19:07:53 0° 292° (WNW) 2,364 1.6 -22.0°
Reaches altitude 10° 19:10:16 10° 276° (W) 1,497 0.1 -22.5°
Maximum altitude 19:12:55 22° 224° (SW) 975 -1.7 -22.9°
Enters shadow 19:13:10 22° 217° (SW) 980 -1.7 -22.9°
